Weather History for KLMT - March, 2013

Change the Weather History Date:

Sunday, March 3, 2013

  Actual Average Record
Temperature  
Mean Temperature 39 °F 37 °F  
Max Temperature 50 °F 49 °F 65 °F (1986)
Min Temperature 28 °F 26 °F 10 °F (1989)
Degree Days  
Heating Degree Days 26 28  
Month to date heating degree days 74 84  
Since 1 July heating degree days 4765 4925  
Cooling Degree Days 0 0  
Month to date cooling degree days 0 0  
Year to date cooling degree days 0 0  
Moisture  
Dew Point 32 °F    
Average Humidity 80    
Maximum Humidity 100    
Minimum Humidity 46    
Precipitation  
Precipitation 0.07 in 0.05 in 0.70 in (1995)
Month to date precipitation 0.09 0.17  
Year to date precipitation 0.87 3.94  
Sea Level Pressure  
Sea Level Pressure 30.08 in    
Wind  
Wind Speed 4 mph (NW)    
Max Wind Speed 12 mph    
Max Gust Speed 14 mph    
Visibility 9 miles    
Events Rain    
T = Trace of Precipitation, MM = Missing Value Source: NWS Daily Summary

Daily Weather History Graph

Daily Weather History Graph

Search for Another Location

Airport or City:

Trip Planner

Search our weather history database for the weather conditions in past years. The results will help you decide how hot, cold, wet, or windy it might be!

Date:

Astronomy

Mar. 03, 2013 Rise Set
Actual Time 6:38 AM PST 5:59 PM PST
Civil Twilight 6:10 AM PST 6:27 PM PST
Nautical Twilight 5:37 AM PST 7:00 PM PST
Astronomical Twilight 5:05 AM PST 7:32 PM PST
Moon No Moon Rise 9:50 AM PST (3/3)
Length of Visible Light 12h 17m
Length of Day
11h 21m
Waning Gibbous, 62% of the Moon is Illuminated
Mar 3
Waning Gibbous
Mar 4
Last Quarter
Mar 11
New
Mar 19
First Quarter
Mar 27
Full

Hourly Weather History & Observations

Time (PST) Temp. Windchill Dew Point Humidity Pressure Visibility Wind Dir Wind Speed Gust Speed Precip Events Conditions
12:21 AM 39.2 °F - 37.4 °F 93% 30.12 in 9.0 mi Calm Calm - 0.01 in Rain Light Rain
12:41 AM 39.2 °F - 37.4 °F 93% 30.12 in 8.0 mi Calm Calm - 0.02 in Rain Light Rain
12:53 AM 39.0 °F - 37.0 °F 93% 30.11 in 8.0 mi Calm Calm - 0.02 in Rain Light Rain
1:21 AM 39.2 °F - 37.4 °F 93% 30.13 in 9.0 mi Calm Calm - 0.02 in Rain Light Rain
1:32 AM 39.2 °F - 37.4 °F 93% 30.12 in 6.0 mi Calm Calm - 0.03 in Rain Light Rain
1:53 AM 39.0 °F - 37.0 °F 93% 30.10 in 7.0 mi Calm Calm - 0.04 in Rain Light Rain
2:53 AM 37.9 °F 35.5 °F 37.0 °F 97% 30.07 in 10.0 mi SSW 3.5 mph - 0.01 in   Overcast
3:14 AM 37.4 °F 34.9 °F 35.6 °F 93% 30.10 in 10.0 mi South 3.5 mph - N/A   Overcast
3:26 AM 37.4 °F - 35.6 °F 93% 30.09 in 10.0 mi Calm Calm - N/A   Mostly Cloudy
3:53 AM 36.0 °F - 35.1 °F 97% 30.06 in 10.0 mi Calm Calm - N/A   Scattered Clouds
4:53 AM 35.1 °F - 33.1 °F 92% 30.09 in 10.0 mi Calm Calm - N/A   Partly Cloudy
5:53 AM 33.1 °F - 33.1 °F 100% 30.10 in 10.0 mi Calm Calm - N/A   Overcast
6:19 AM 33.8 °F 30.8 °F 33.8 °F 100% 30.10 in 10.0 mi NNE 3.5 mph - N/A   Mostly Cloudy
6:53 AM 34.0 °F - 33.1 °F 96% 30.10 in 10.0 mi Calm Calm - N/A   Mostly Cloudy
7:53 AM 35.1 °F - 34.0 °F 96% 30.12 in 10.0 mi Calm Calm - N/A   Mostly Cloudy
8:53 AM 39.9 °F 37.8 °F 36.0 °F 86% 30.10 in 10.0 mi NW 3.5 mph - N/A   Scattered Clouds
9:53 AM 42.1 °F 40.2 °F 33.1 °F 70% 30.09 in 10.0 mi NNW 3.5 mph - N/A   Scattered Clouds
10:53 AM 45.0 °F 40.6 °F 32.0 °F 60% 30.08 in 10.0 mi NW 8.1 mph - N/A   Scattered Clouds
11:53 AM 44.1 °F 41.5 °F 30.0 °F 58% 30.08 in 10.0 mi NNW 4.6 mph - N/A   Mostly Cloudy
12:53 PM 45.0 °F 41.2 °F 28.9 °F 53% 30.06 in 10.0 mi NNW 6.9 mph - N/A   Mostly Cloudy
1:53 PM 46.9 °F - 28.9 °F 50% 30.04 in 10.0 mi Variable 4.6 mph - N/A   Mostly Cloudy
2:53 PM 48.9 °F - 30.0 °F 48% 30.03 in 10.0 mi SW 9.2 mph - N/A   Scattered Clouds
3:53 PM 48.9 °F - 28.9 °F 46% 30.02 in 10.0 mi West 9.2 mph - N/A   Partly Cloudy
4:53 PM 48.9 °F - 28.9 °F 46% 30.02 in 10.0 mi NNW 5.8 mph - N/A   Partly Cloudy
5:53 PM 43.0 °F 38.2 °F 30.0 °F 60% 30.05 in 10.0 mi West 8.1 mph - N/A   Partly Cloudy
6:53 PM 37.0 °F 34.5 °F 28.9 °F 73% 30.07 in 7.0 mi North 3.5 mph - N/A   Clear
7:53 PM 34.0 °F 28.0 °F 28.0 °F 79% 30.08 in 7.0 mi West 6.9 mph - N/A   Clear
8:53 PM 30.0 °F 24.1 °F 26.1 °F 85% 30.09 in 7.0 mi NNW 5.8 mph - N/A   Clear
9:53 PM 33.1 °F - 27.0 °F 78% 30.08 in 10.0 mi Calm Calm - N/A   Clear
10:53 PM 28.9 °F 25.2 °F 26.1 °F 89% 30.09 in 10.0 mi North 3.5 mph - N/A   Clear
11:53 PM 30.9 °F 23.5 °F 23.0 °F 72% 30.09 in 10.0 mi NNW 8.1 mph - N/A   Clear